| time (UTC) | temp F | wind direction | speed knots | gust knots | rain 1hr in | rain 24hr in | rain mn in | humidity % | barometer mb |
| 20260503200005 | 64 | 360 | 1.7 | 5.2 | 0.00 | 0.00 | 0.00 | 32 | 1016.5 |
| 20260503195410 | 63 | 360 | 1.7 | 7.8 | 0.00 | 0.00 | 0.00 | 34 | 1016.4 |
| 20260503194504 | 63 | 360 | 2.6 | 9.6 | 0.00 | 0.00 | 0.00 | 32 | 1016.7 |
| 20260503193604 | 63 | 360 | 1.7 | 7.8 | 0.00 | 0.00 | 0.00 | 32 | 1016.7 |
| 20260503192705 | 63 | 360 | 1.7 | 5.2 | 0.00 | 0.00 | 0.00 | 33 | 1016.8 |
| 20260503192015 | 63 | 360 | 1.7 | 6.1 | 0.00 | 0.00 | 0.00 | 32 | 1016.9 |
| 20260503190905 | 63 | 360 | 1.7 | 7.0 | 0.00 | 0.00 | 0.00 | 35 | 1017.1 |
| 20260503190005 | 63 | 360 | 2.6 | 8.7 | 0.00 | 0.00 | 0.00 | 32 | 1017.0 |
| 20260503185404 | 63 | 359 | 0.9 | 4.3 | 0.00 | 0.00 | 0.00 | 33 | 1017.0 |
| 20260503184504 | 62 | 357 | 2.6 | 9.6 | 0.00 | 0.00 | 0.00 | 36 | 1017.3 |
| 20260503183816 | 62 | 3 | 2.6 | 6.1 | 0.00 | 0.00 | 0.00 | 39 | 1017.3 |
| 20260503182704 | 61 | 360 | 2.6 | 7.8 | 0.00 | 0.00 | 0.00 | 37 | 1017.1 |
| 20260503181804 | 61 | 360 | 2.6 | 10.4 | 0.00 | 0.00 | 0.00 | 36 | 1017.3 |
| 20260503180905 | 60 | 360 | 2.6 | 7.0 | 0.00 | 0.00 | 0.00 | 36 | 1017.3 |
| 20260503180005 | 60 | 360 | 3.5 | 9.6 | 0.00 | 0.00 | 0.00 | 37 | 1017.4 |
| 20260503175404 | 60 | 360 | 2.6 | 8.7 | 0.00 | 0.00 | 0.00 | 37 | 1017.4 |
| 20260503174504 | 60 | 360 | 1.7 | 8.7 | 0.00 | 0.00 | 0.00 | 37 | 1017.5 |
| 20260503173605 | 60 | 360 | 2.6 | 8.7 | 0.00 | 0.00 | 0.00 | 38 | 1017.6 |
| 20260503172705 | 60 | 360 | 2.6 | 8.7 | 0.00 | 0.00 | 0.00 | 37 | 1017.7 |
| 20260503171805 | 60 | 360 | 2.6 | 7.8 | 0.00 | 0.00 | 0.00 | 39 | 1017.8 |
| 20260503170904 | 59 | 360 | 3.5 | 7.0 | 0.00 | 0.00 | 0.00 | 38 | 1017.8 |
| 20260503150904 | 55 | 360 | 3.5 | 12.2 | 0.00 | 0.01 | 0.00 | 42 | 1018.5 |
| 20260503150217 | 55 | 360 | 2.6 | 10.4 | 0.00 | 0.01 | 0.00 | 46 | 1018.4 |
| 20260503131116 | 53 | 360 | 2.6 | 7.0 | 0.00 | 0.01 | 0.00 | 51 | 1018.1 |
| 20260503130219 | 53 | 360 | 2.6 | 9.6 | 0.00 | 0.01 | 0.00 | 54 | 1018.0 |
| 20260503080905 | 52 | 360 | 1.7 | 5.2 | 0.00 | 0.01 | 0.00 | 58 | 1014.1 |
| 20260503072705 | 49 | 360 | 2.6 | 7.8 | 0.00 | 0.01 | 0.00 | 20 | 1013.7 |
| 20260503071805 | 48 | 360 | 0.0 | 0.9 | 0.00 | 0.01 | 0.00 | 1 | 1013.7 |
| 20260503070904 | 48 | 360 | 0.0 | 0.9 | 0.00 | 0.01 | 0.00 | 1 | 1013.6 |
| 20260503054505 | 46 | 0 | 0.0 | 0.0 | 0.00 | 0.01 | 0.00 | 1 | 1013.1 |
| 20260503053604 | 47 | 0 | 0.0 | 0.0 | 0.00 | 0.01 | 0.00 | 1 | 1013.1 |
| 20260503052705 | 47 | 0 | 0.0 | 0.0 | 0.00 | 0.01 | 0.00 | 1 | 1013.2 |
| 20260503051809 | 47 | 0 | 0.0 | 0.0 | 0.00 | 0.01 | 0.00 | 1 | 1013.2 |
| 20260503050905 | 47 | 0 | 0.0 | 0.0 | 0.00 | 0.01 | 0.00 | 1 | 1013.1 |
| 20260503050005 | 47 | 0 | 0.0 | 0.0 | 0.00 | 0.01 | 0.00 | 1 | 1013.1 |
| 20260503045405 | 48 | 0 | 0.0 | 0.0 | 0.00 | 0.01 | 0.00 | 1 | 1013.2 |
| 20260503044718 | 48 | 0 | 0.0 | 0.0 | 0.00 | 0.01 | 0.00 | 1 | 1013.3 |
| 20260503043605 | 48 | 0 | 0.0 | 0.0 | 0.00 | 0.01 | 0.00 | 1 | 1013.3 |
| 20260503042709 | 48 | 0 | 0.0 | 0.0 | 0.00 | 0.01 | 0.00 | 1 | 1013.2 |
| 20260503041805 | 49 | 0 | 0.0 | 0.0 | 0.00 | 0.01 | 0.00 | 1 | 1013.2 |
| 20260503040905 | 49 | 0 | 0.0 | 0.0 | 0.00 | 0.01 | 0.00 | 1 | 1013.2 |
| 20260503040113 | 49 | 0 | 0.0 | 0.0 | 0.00 | 0.01 | 0.00 | 1 | 1013.1 |
| 20260503035405 | 49 | 0 | 0.0 | 0.0 | 0.00 | 0.01 | 0.01 | 1 | 1013.1 |
| 20260503034718 | 50 | 0 | 0.0 | 0.0 | 0.00 | 0.01 | 0.01 | 1 | 1013.3 |
| 20260503033604 | 50 | 0 | 0.0 | 0.0 | 0.00 | 0.01 | 0.01 | 1 | 1013.3 |
| 20260503032918 | 50 | 0 | 0.0 | 0.0 | 0.00 | 0.01 | 0.01 | 1 | 1013.2 |
| 20260503032015 | 50 | 0 | 0.0 | 0.0 | 0.00 | 0.01 | 0.01 | 1 | 1013.0 |
| 20260503030904 | 50 | 360 | 0.0 | 0.9 | 0.00 | 0.01 | 0.01 | 4 | 1013.0 |
| 20260503030005 | 50 | 0 | 0.0 | 0.0 | 0.00 | 0.01 | 0.01 | 6 | 1012.9 |
| 20260503025405 | 50 | 0 | 0.0 | 0.0 | 0.00 | 0.01 | 0.01 | 10 | 1012.9 |
| 20260503024505 | 50 | 0 | 0.0 | 0.0 | 0.00 | 0.01 | 0.01 | 12 | 1013.0 |
| 20260503023604 | 50 | 0 | 0.0 | 0.0 | 0.00 | 0.01 | 0.01 | 14 | 1013.3 |
| 20260503022705 | 51 | 360 | 0.0 | 0.9 | 0.00 | 0.01 | 0.01 | 19 | 1013.4 |
| 20260503021804 | 51 | 360 | 0.0 | 0.9 | 0.00 | 0.01 | 0.01 | 31 | 1013.4 |
| 20260503020905 | 51 | 0 | 0.0 | 0.0 | 0.00 | 0.01 | 0.01 | 32 | 1013.1 |
| 20260503020005 | 51 | 0 | 0.0 | 0.0 | 0.00 | 0.01 | 0.01 | 34 | 1013.1 |
| 20260503015404 | 51 | 0 | 0.0 | 0.0 | 0.00 | 0.01 | 0.01 | 33 | 1013.1 |
| 20260503014714 | 52 | 0 | 0.0 | 0.0 | 0.00 | 0.01 | 0.01 | 36 | 1013.2 |
| 20260503013605 | 52 | 0 | 0.0 | 0.0 | 0.00 | 0.01 | 0.01 | 39 | 1013.1 |
| 20260503012705 | 52 | 0 | 0.0 | 0.0 | 0.00 | 0.01 | 0.01 | 43 | 1012.9 |
| 20260503011804 | 52 | 360 | 0.0 | 0.9 | 0.00 | 0.01 | 0.01 | 49 | 1012.9 |
| 20260503010905 | 53 | 0 | 0.0 | 0.0 | 0.00 | 0.01 | 0.01 | 55 | 1012.6 |
| 20260503010005 | 53 | 0 | 0.0 | 0.0 | 0.00 | 0.01 | 0.01 | 57 | 1012.6 |
| 20260503005405 | 54 | 0 | 0.0 | 0.0 | 0.00 | 0.01 | 0.01 | 58 | 1012.5 |
| 20260503004504 | 54 | 0 | 0.0 | 0.0 | 0.00 | 0.01 | 0.01 | 58 | 1012.5 |
| 20260503003605 | 54 | 0 | 0.0 | 0.0 | 0.00 | 0.01 | 0.01 | 56 | 1012.4 |
| 20260503002704 | 55 | 360 | 0.0 | 1.7 | 0.00 | 0.01 | 0.01 | 54 | 1012.3 |
| 20260503001805 | 55 | 360 | 0.0 | 1.7 | 0.00 | 0.01 | 0.01 | 54 | 1012.3 |
| 20260503001114 | 55 | 360 | 0.9 | 3.5 | 0.00 | 0.01 | 0.01 | 53 | 1012.3 |
| 20260503000005 | 55 | 360 | 0.9 | 3.5 | 0.00 | 0.01 | 0.01 | 54 | 1012.1 |
| 20260502235405 | 55 | 360 | 0.9 | 3.5 | 0.00 | 0.01 | 0.01 | 53 | 1012.1 |
| 20260502234505 | 55 | 360 | 1.7 | 4.3 | 0.00 | 0.01 | 0.01 | 53 | 1012.1 |
| 20260502233605 | 55 | 360 | 1.7 | 4.3 | 0.00 | 0.01 | 0.01 | 53 | 1012.0 |
| 20260502232704 | 55 | 360 | 0.9 | 4.3 | 0.00 | 0.01 | 0.01 | 56 | 1012.0 |
| 20260502231805 | 56 | 360 | 0.9 | 4.3 | 0.00 | 0.01 | 0.01 | 57 | 1011.8 |
| 20260502230905 | 56 | 360 | 1.7 | 3.5 | 0.00 | 0.01 | 0.01 | 56 | 1011.7 |
| 20260502230005 | 56 | 360 | 0.9 | 6.1 | 0.00 | 0.01 | 0.01 | 56 | 1011.8 |
| 20260502225405 | 56 | 360 | 0.9 | 3.5 | 0.00 | 0.01 | 0.01 | 56 | 1011.8 |
| 20260502224505 | 57 | 360 | 0.9 | 4.3 | 0.00 | 0.01 | 0.01 | 56 | 1011.8 |
| 20260502223605 | 57 | 360 | 0.9 | 4.3 | 0.00 | 0.01 | 0.01 | 56 | 1011.8 |
| 20260502222705 | 57 | 360 | 0.0 | 3.5 | 0.00 | 0.01 | 0.01 | 56 | 1011.8 |
| 20260502221804 | 57 | 360 | 0.9 | 3.5 | 0.00 | 0.01 | 0.01 | 55 | 1011.7 |
| 20260502220905 | 57 | 360 | 0.9 | 4.3 | 0.00 | 0.01 | 0.01 | 56 | 1011.7 |
| 20260502220005 | 58 | 360 | 0.9 | 4.3 | 0.00 | 0.01 | 0.01 | 56 | 1011.7 |
| 20260502215405 | 58 | 360 | 0.0 | 2.6 | 0.00 | 0.01 | 0.01 | 57 | 1011.6 |
| 20260502214505 | 58 | 360 | 0.9 | 3.5 | 0.00 | 0.01 | 0.01 | 57 | 1011.6 |
| 20260502213605 | 58 | 360 | 1.7 | 4.3 | 0.00 | 0.01 | 0.01 | 57 | 1011.5 |
| 20260502212705 | 58 | 360 | 0.9 | 3.5 | 0.00 | 0.01 | 0.01 | 58 | 1011.5 |
| 20260502211805 | 58 | 360 | 0.9 | 3.5 | 0.00 | 0.01 | 0.01 | 57 | 1011.5 |
| 20260502210905 | 58 | 360 | 0.9 | 4.3 | 0.00 | 0.01 | 0.01 | 56 | 1011.5 |
| 20260502210005 | 58 | 360 | 1.7 | 4.3 | 0.00 | 0.01 | 0.01 | 55 | 1011.6 |
| 20260502205405 | 58 | 360 | 0.9 | 6.1 | 0.00 | 0.01 | 0.01 | 56 | 1011.6 |
| 20260502204505 | 58 | 360 | 0.9 | 4.3 | 0.00 | 0.01 | 0.01 | 54 | 1011.3 |
| 20260502203605 | 58 | 360 | 1.7 | 6.1 | 0.00 | 0.01 | 0.01 | 53 | 1011.2 |
| 20260502202917 | 58 | 360 | 0.9 | 5.2 | 0.00 | 0.01 | 0.01 | 50 | 1011.3 |
| 20260502201805 | 58 | 360 | 1.7 | 3.5 | 0.00 | 0.01 | 0.01 | 49 | 1011.4 |
| 20260502200905 | 58 | 360 | 1.7 | 5.2 | 0.00 | 0.01 | 0.01 | 50 | 1011.5 |